[[{"header":{"parameterUnit":"m.s-1","parameterCategory":1,"la1":30.2991,"la2":30.254,"lo1":-89.0895,"lo2":-89.0444,"dy":0.0017,"dx":0.0017,"nx":28,"ny":28,"refTime":"2024-03-14T21:00:00:Z","depth":0,"parameterNumber":2,"parameterNumberName":"U-component_of_WINDS"},"data":[0,0,0,0,0,0,0,0,0,0,0,0,0,0,0,0,0,0,0,0,0,0,0,0,0,0,0,0,0,0,0,0,0,0,0,0,0,0,0,0,0,0,0,0,0,0,0,0,0,0,0,0,0,0,0,0,0,0,-0.9956,-0.9957,0,-0.9974,-0.9974,-0.9974,-0.9978,-0.9978,-0.9978,-0.9978,-0.9994,-0.9994,-0.9995,0,0,0,0,0,0,0,0,0,0,0,0,0,-0.9924,-0.9925,-0.9956,-0.9957,-0.9957,-0.9974,-0.9974,-0.9974,-0.9978,-0.9978,-0.9978,-0.9977,-0.9993,-0.9994,-0.9995,0,0,0,0,0,0,0,0,0,0,0,0,0,-0.9939,-0.9925,-0.9956,-0.9961,-0.9961,-0.9974,-0.9974,-0.9974,-0.9978,-0.9978,-0.9978,-0.9977,-0.9993,-0.9994,-0.9995,-1.0004,0,0,-0.9997,-0.9998,0,0,0,0,0,0,0,0,-0.9939,-0.9941,-0.996,-0.996,-0.9961,-0.9974,-0.9969,-0.9984,-0.9978,-0.9972,-0.9978,-0.9977,-0.9987,-0.9988,-0.9992,-1.0004,-1.0005,-0.9997,-0.9998,-0.9998,-0.9998,0,0,0,0,0,0,0,-0.9937,-0.994,-0.9963,-0.996,-0.9961,-0.9961,-0.9963,-0.9972,-0.998,-0.9972,-0.9972,-0.9975,-0.9987,-0.9991,-0.9992,-1.0005,-0.9997,-0.9998,-0.9999,-0.9999,-1.0025,-1.0025,0,0,0,0,0,0,-0.9936,-0.9939,-0.9963,-0.9964,-0.9949,-0.9962,-0.9964,-0.997,-0.998,-0.9981,-0.9975,-0.9975,-0.999,-0.9991,-0.9993,-1.0003,-0.9998,-0.9999,-0.9999,-1.0025,-1.0025,-1.0025,0,0,0,0,0,0,-0.9935,-0.9938,-0.9962,-0.9951,-0.9955,-0.9963,-0.9969,-0.997,-0.9974,-0.9982,-0.9983,-0.9977,-0.999,-0.9992,-1.0001,-1.0004,-0.9999,-1.0,-1.0024,-1.0025,-1.0025,-1.0025,0,0,0,0,0,0,-0.9934,-0.9938,-0.9942,-0.9952,-0.9955,-0.997,-0.9969,-0.9971,-0.9976,-0.9976,-0.9985,-0.9986,-0.999,-1.0,-1.0002,-1.0005,-1.0001,-1.0024,-1.0025,-1.0025,-1.0024,-1.0025,-1.0025,0,0,0,0,0,-0.9933,-0.9941,-0.9942,-0.9945,-0.996,-0.9971,-0.9973,-0.9977,-0.9976,-0.998,-0.9985,-0.9986,-1.0003,-1.0,-1.0003,-1.0006,-1.0024,-1.0024,-1.0025,-1.0024,-1.0025,-1.0025,0,0,0,0,0,0,-0.9931,-0.9942,-0.9944,-0.9955,-0.9962,-0.9971,-0.9976,-0.9978,-0.9985,-0.9985,-0.999,-0.9991,-1.0,-1.0004,-1.0001,-1.0015,-1.0014,-1.0014,-1.0012,-1.0013,-1.0013,-1.0012,-1.0001,0,0,0,0,0,-0.9931,-0.9939,-0.9949,-0.9958,-0.9961,-0.9968,-0.9973,-0.9976,-0.9983,-0.9986,-0.9991,-0.9997,-1.0004,-1.0009,-1.0016,-1.0025,-1.0027,-1.0029,-1.0029,-1.0029,-1.003,-1.0035,-1.0035,-1.0027,-1.0027,-1.0027,0,0,-0.9933,-0.994,-0.9945,-0.9957,-0.9963,-0.997,-0.997,-0.9978,-0.9984,-0.9987,-0.9996,-1.0,-1.0007,-1.0016,-1.0021,-1.002,-1.0033,-1.003,-1.003,-1.0031,-1.0035,-1.0036,-1.0037,-1.0027,-1.0027,-1.0027,0,0,-0.994,-0.9946,-0.9954,-0.996,-0.9969,-0.9973,-0.9975,-0.9984,-0.9987,-0.9996,-0.9999,-1.0005,-1.0017,-1.0022,-1.0026,-1.0034,-1.0035,-1.0036,-1.0038,-1.0042,-1.0043,-1.0043,-1.0046,-1.0047,-1.0036,-1.0036,-1.0036,0,-0.9941,-0.9952,-0.9958,-0.9966,-0.9971,-0.9974,-0.9981,-0.9987,-0.9997,-1.0,-0.9999,-1.0014,-1.0019,-1.0029,-1.0031,-1.0035,-1.0036,-1.0035,-1.0042,-1.0043,-1.0044,-1.0046,-1.0047,-1.0036,-1.0036,-1.0036,-1.0036,0,-0.9952,-0.9961,-0.9966,-0.9976,-0.9982,-0.9989,-0.9995,-1.0,-1.0002,-1.0006,-1.0015,-1.0022,-1.0029,-1.0032,-1.0034,-1.0042,-1.0041,-1.0042,-1.004,-1.0045,-1.0047,-1.0048,-1.0036,-1.0036,-1.0036,-1.0036,0,0,-0.9958,-0.9971,-0.9973,-0.9977,-0.9987,-0.9993,-1.0,-1.0009,-1.0012,-1.0019,-1.0025,-1.0035,-1.0035,-1.0039,-1.0042,-1.0046,-1.0051,-1.0046,-1.0046,-1.0046,-1.0059,-1.0059,-1.006,-1.0052,-1.0052,-1.0052,-1.0059,0,-0.9966,-0.9979,-0.9984,-0.9995,-1.0002,-1.0005,-1.0012,-1.0018,-1.0022,-1.0028,-1.0032,-1.0039,-1.0039,-1.0041,-1.0045,-1.005,-1.0054,-1.0049,-1.0057,-1.0057,-1.0054,-1.0061,-1.0061,-1.0067,-1.006,-1.006,-1.006,0,-0.9976,-0.9984,-0.9995,-1.0004,-1.0007,-1.0012,-1.002,-1.0026,-1.0033,-1.0035,-1.004,-1.0043,-1.005,-1.0048,-1.0057,-1.0054,-1.0057,-1.006,-1.006,-1.0061,-1.0058,-1.0061,-1.0068,-1.0069,-1.0061,-1.0061,-1.0061,0,-0.9978,-0.9991,-1.0,-1.0004,-1.0014,-1.0017,-1.0022,-1.0028,-1.0033,-1.0039,-1.0042,-1.0049,-1.0052,-1.0057,-1.0061,-1.006,-1.007,-1.0069,-1.0072,-1.0072,-1.0073,-1.0073,-1.0081,-1.0076,-1.0076,-1.0076,-1.0076,0,-0.9986,-0.9993,-1.0001,-1.0006,-1.0014,-1.0019,-1.0026,-1.003,-1.0036,-1.0042,-1.0045,-1.005,-1.0055,-1.006,-1.0064,-1.007,-1.0072,-1.0074,-1.0074,-1.0073,-1.0073,-1.0075,-1.0075,-1.0076,-1.0076,-1.0076,-1.0076,0,-0.999,-0.9995,-1.0005,-1.0014,-1.0016,-1.0021,-1.0028,-1.0033,-1.0037,-1.0044,-1.0046,-1.0052,-1.0059,-1.0063,-1.0072,-1.0074,-1.0081,-1.0082,-1.0079,-1.0079,-1.0082,-1.0081,-1.009,-1.0092,-1.0087,-1.0087,-1.0087,0,-0.9994,-0.9999,-1.0009,-1.0013,-1.0017,-1.0024,-1.0028,-1.0033,-1.0038,-1.0046,-1.0049,-1.0056,-1.0062,-1.0072,-1.0077,-1.0083,-1.0084,-1.0087,-1.0085,-1.0084,-1.0084,-1.0083,-1.0083,-1.0087,-1.0087,-1.0087,-1.0087,0,-1.0001,-1.0003,-1.001,-1.0017,-1.0023,-1.0029,-1.0035,-1.0038,-1.0044,-1.0049,-1.0056,-1.006,-1.0069,-1.0075,-1.0082,-1.0086,-1.0087,-1.0088,-1.0089,-1.0087,-1.0085,-1.0086,-1.0079,-1.0087,-1.0087,-1.0087,-1.0087,-1.0087,-1.0004,-1.0009,-1.0016,-1.0023,-1.0029,-1.0034,-1.0039,-1.0044,-1.005,-1.0057,-1.006,-1.0067,-1.0073,-1.0082,-1.0086,-1.0091,-1.0091,-1.0092,-1.0093,-1.0093,-1.0093,-1.0085,-1.0092,-1.0092,-1.0092,-1.0092,-1.0092,0,-1.0011,-1.0016,-1.0022,-1.0031,-1.0036,-1.0038,-1.0044,-1.0048,-1.0055,-1.006,-1.0066,-1.0074,-1.008,-1.0085,-1.0092,-1.0095,-1.0096,-1.0096,-1.0096,-1.0097,-1.0093,-1.0091,-1.0096,-1.0096,-1.0096,-1.0096,-1.0096,-1.0096,-1.0015,-1.0023,-1.0026,-1.0036,-1.0041,-1.0048,-1.0052,-1.0056,-1.0061,-1.0069,-1.0075,-1.0078,-1.0084,-1.0091,-1.0096,-1.0098,-1.0099,-1.01,-1.0101,-1.0097,-1.0097,-1.0097,-1.0095,-1.01,-1.01,-1.0105,-1.0105,-1.0105]},{"header":{"parameterUnit":"m.s-1","parameterCategory":1,"la1":30.2991,"la2":30.254,"lo1":-89.0895,"lo2":-89.0444,"dy":0.0017,"dx":0.0017,"nx":28,"ny":28,"refTime":"2024-03-14T21:00:00:Z","depth":0,"parameterNumber":3,"parameterNumberName":"V-component_of_WINDS"},"data":[0,0,0,0,0,0,0,0,0,0,0,0,0,0,0,0,0,0,0,0,0,0,0,0,0,0,0,0,0,0,0,0,0,0,0,0,0,0,0,0,0,0,0,0,0,0,0,0,0,0,0,0,0,0,0,0,0,0,3.0777,3.0777,0,3.0825,3.0826,3.0826,3.0848,3.0847,3.0847,3.0847,3.0893,3.0895,3.0896,0,0,0,0,0,0,0,0,0,0,0,0,0,3.0702,3.0703,3.0777,3.0777,3.0778,3.0825,3.0826,3.0826,3.0848,3.0847,3.0847,3.0847,3.0893,3.0894,3.0896,0,0,0,0,0,0,0,0,0,0,0,0,0,3.074,3.0703,3.0777,3.0794,3.0796,3.0825,3.0826,3.0826,3.0848,3.0847,3.0847,3.0847,3.0892,3.0894,3.0896,3.0909,0,0,3.0902,3.0903,0,0,0,0,0,0,0,0,3.0738,3.0743,3.0791,3.0793,3.0796,3.083,3.0816,3.0854,3.0848,3.0828,3.0847,3.0847,3.0872,3.0876,3.0885,3.0912,3.0914,3.0902,3.0903,3.0904,3.0905,0,0,0,0,0,0,0,3.0735,3.0741,3.0796,3.0792,3.0794,3.0799,3.0805,3.0823,3.085,3.083,3.0831,3.0837,3.0873,3.0883,3.0886,3.0914,3.0902,3.0904,3.0905,3.0906,3.0958,3.0958,0,0,0,0,0,0,3.073,3.0739,3.0794,3.0797,3.0766,3.0801,3.0807,3.0819,3.085,3.0854,3.0837,3.0838,3.088,3.0884,3.0888,3.0908,3.0904,3.0906,3.0907,3.0958,3.0958,3.0958,0,0,0,0,0,0,3.0728,3.0735,3.0792,3.0769,3.0776,3.0802,3.0816,3.082,3.083,3.0855,3.086,3.0842,3.088,3.0885,3.0905,3.091,3.0907,3.0908,3.0957,3.0958,3.0958,3.0947,0,0,0,0,0,0,3.0726,3.0734,3.074,3.0769,3.0777,3.0809,3.0816,3.0821,3.0834,3.0835,3.0861,3.0866,3.088,3.0902,3.0907,3.0912,3.091,3.0957,3.0958,3.0958,3.0947,3.0947,3.0947,0,0,0,0,0,3.0723,3.0733,3.074,3.0746,3.0785,3.0809,3.0814,3.0832,3.0834,3.084,3.0857,3.0865,3.0908,3.0904,3.0909,3.0916,3.0957,3.0957,3.0958,3.0947,3.0947,3.0947,0,0,0,0,0,0,3.0702,3.0737,3.0745,3.0764,3.0784,3.0813,3.082,3.0831,3.0849,3.0849,3.087,3.0875,3.0894,3.0906,3.0901,3.0932,3.0933,3.0935,3.0923,3.0923,3.0923,3.092,3.0912,0,0,0,0,0,3.0699,3.0717,3.0746,3.076,3.077,3.0794,3.0805,3.0817,3.0838,3.0846,3.0864,3.0883,3.0901,3.0913,3.0931,3.0949,3.0956,3.0956,3.0956,3.0955,3.0957,3.097,3.0971,3.096,3.096,3.096,0,0,3.0694,3.0716,3.0725,3.0757,3.0773,3.0791,3.08,3.0818,3.0832,3.0848,3.0869,3.0883,3.0906,3.0926,3.0935,3.0937,3.0962,3.0956,3.0956,3.0957,3.0971,3.0972,3.0973,3.096,3.096,3.096,0,0,3.0694,3.0712,3.0727,3.0745,3.0771,3.0787,3.079,3.0819,3.083,3.0851,3.0865,3.0881,3.0911,3.0928,3.094,3.095,3.0959,3.0955,3.0955,3.0968,3.0968,3.0969,3.0975,3.0977,3.0957,3.0957,3.0957,0,3.0684,3.0713,3.0733,3.0752,3.0766,3.0784,3.08,3.0815,3.0845,3.0855,3.0856,3.0897,3.0913,3.0939,3.0942,3.095,3.0956,3.0953,3.0967,3.0968,3.0969,3.0975,3.0977,3.0956,3.0956,3.0956,3.0956,0,3.07,3.072,3.0729,3.076,3.0776,3.0792,3.0816,3.0828,3.084,3.0856,3.0879,3.09,3.0924,3.093,3.094,3.0958,3.0959,3.0963,3.0965,3.0969,3.0975,3.0977,3.0955,3.0956,3.0956,3.0956,0,0,3.0686,3.0732,3.0735,3.0751,3.0782,3.0798,3.0816,3.0841,3.0853,3.0873,3.089,3.0917,3.0923,3.0937,3.0949,3.096,3.097,3.0964,3.0965,3.0966,3.0993,3.0991,3.0993,3.0976,3.0976,3.0977,3.0992,0,3.0692,3.0728,3.0748,3.0775,3.0795,3.0813,3.083,3.0851,3.0867,3.0885,3.0903,3.0923,3.0927,3.0936,3.0948,3.0966,3.0976,3.0965,3.0992,3.0993,3.0988,3.0995,3.0992,3.1005,3.0994,3.0994,3.0995,0,3.0703,3.0727,3.0756,3.0789,3.0798,3.0812,3.0839,3.0856,3.0881,3.0892,3.091,3.0923,3.0944,3.0944,3.0974,3.0966,3.0979,3.099,3.0991,3.0995,3.0995,3.1001,3.1009,3.1012,3.0998,3.0998,3.0997,0,3.0693,3.0732,3.0755,3.0768,3.0806,3.0816,3.0832,3.0857,3.0872,3.0895,3.0905,3.0929,3.0943,3.0961,3.0981,3.0979,3.1009,3.1011,3.102,3.1019,3.1026,3.1025,3.1038,3.1031,3.1031,3.1031,3.1031,0,3.0698,3.0716,3.0752,3.0766,3.0787,3.0811,3.0831,3.0848,3.0871,3.089,3.0906,3.0923,3.0948,3.0967,3.0983,3.1006,3.1012,3.1022,3.1026,3.1021,3.102,3.103,3.103,3.1032,3.1032,3.1031,3.1031,0,3.069,3.0715,3.0742,3.0777,3.0786,3.0801,3.083,3.0845,3.0863,3.0887,3.0893,3.0921,3.0946,3.0968,3.0999,3.101,3.1035,3.1039,3.1027,3.1029,3.1038,3.1038,3.1058,3.1063,3.1052,3.1052,3.1052,0,3.0692,3.0707,3.0745,3.076,3.0776,3.0799,3.0815,3.0839,3.0856,3.0888,3.0899,3.0926,3.0948,3.0987,3.1009,3.1034,3.104,3.1046,3.1044,3.104,3.1043,3.1042,3.1045,3.1046,3.1046,3.1046,3.1046,0,3.0694,3.0707,3.073,3.076,3.078,3.0803,3.0826,3.0837,3.0866,3.0883,3.091,3.0928,3.0963,3.0989,3.1017,3.1033,3.1045,3.1047,3.1051,3.1046,3.104,3.1046,3.1029,3.1046,3.1046,3.1046,3.1046,3.1046,3.0693,3.0708,3.0738,3.0765,3.0786,3.0809,3.0826,3.0847,3.0871,3.0902,3.0915,3.0943,3.097,3.1009,3.1026,3.1048,3.105,3.1054,3.1056,3.1057,3.1057,3.1036,3.1053,3.1053,3.1053,3.1053,3.1053,0,3.0697,3.0719,3.0743,3.0778,3.0799,3.081,3.0838,3.0855,3.088,3.0905,3.0928,3.096,3.0987,3.1013,3.1041,3.1054,3.106,3.106,3.106,3.1064,3.1053,3.1048,3.1055,3.1055,3.1055,3.1055,3.1055,3.1055,3.0702,3.073,3.0746,3.0785,3.0806,3.0835,3.085,3.0872,3.0892,3.0928,3.0951,3.0969,3.0995,3.1025,3.1051,3.1058,3.1068,3.1067,3.1076,3.1065,3.1064,3.1064,3.1059,3.1069,3.1069,3.1085,3.1085,3.1085]}]]